AAL442 KCLT-KBOS

Flight info

Callsign AAL442
Flight time N/A
Altitude 37000
Route BARMY5 RDU NOWAE Q87 GEARS BBOBO Q22 LLUND BDR SCOGS3
Aircraft B77W/H-SDE1E2E3FGHIJ2J3J4J5M1RWXY/LB1D1

Departure

Time N/A
Airport Charlotte Douglas International Airport (KCLT)

Arrival

Time 2026-05-04 23:27
Airport Boston Logan International Airport (KBOS)
Time Latitude Longitude Altitude Speed Heading
2026-05-04 22:38 39.86619 -74.89834 33918 ft 498 kts 38°
2026-05-04 22:38 39.91947 -74.84102 33939 ft 495 kts 32°
2026-05-04 22:39 39.97617 -74.79000 33919 ft 494 kts 31°
2026-05-04 22:39 40.03027 -74.73845 33918 ft 495 kts 36°
2026-05-04 22:40 40.07462 -74.68108 33925 ft 498 kts 44°
2026-05-04 22:40 40.11836 -74.61643 33919 ft 498 kts 44°
2026-05-04 22:41 40.16465 -74.54896 33899 ft 497 kts 44°
2026-05-04 22:41 40.21203 -74.48360 33904 ft 493 kts 38°
2026-05-04 22:42 40.26458 -74.42688 33743 ft 484 kts 34°
2026-05-04 22:42 40.29085 -74.39943 33107 ft 482 kts 34°
2026-05-04 22:42 40.31694 -74.37138 32699 ft 489 kts 38°
2026-05-04 22:42 40.34095 -74.33998 32575 ft 484 kts 43°
2026-05-04 22:43 40.36235 -74.30645 32034 ft 480 kts 49°
2026-05-04 22:43 40.38107 -74.27039 31588 ft 473 kts 52°
2026-05-04 22:43 40.39886 -74.23474 31252 ft 463 kts 52°
2026-05-04 22:43 40.41635 -74.19971 30965 ft 453 kts 52°
2026-05-04 22:44 40.43351 -74.16559 30627 ft 445 kts 52°
2026-05-04 22:44 40.45055 -74.13188 30191 ft 440 kts 51°
2026-05-04 22:44 40.46749 -74.09854 29597 ft 439 kts 51°
2026-05-04 22:44 40.48441 -74.06527 28973 ft 437 kts 51°
2026-05-04 22:45 40.50115 -74.03232 28390 ft 435 kts 51°
2026-05-04 22:45 40.53325 -73.96887 27379 ft 428 kts 52°
2026-05-04 22:45 40.54962 -73.93645 27003 ft 425 kts 52°
2026-05-04 22:46 40.56052 -73.91489 26938 ft 428 kts 52°
2026-05-04 22:46 40.58241 -73.87157 26926 ft 427 kts 52°
2026-05-04 22:46 40.59347 -73.84965 26915 ft 425 kts 52°
2026-05-04 22:46 40.61513 -73.80669 26926 ft 424 kts 52°
2026-05-04 22:47 40.63167 -73.77461 26934 ft 424 kts 49°
2026-05-04 22:47 40.65017 -73.74472 26928 ft 420 kts 43°
2026-05-04 22:47 40.66974 -73.71614 26932 ft 420 kts 43°
2026-05-04 22:47 40.68931 -73.68796 26930 ft 421 kts 43°
2026-05-04 22:48 40.70269 -73.66871 26927 ft 421 kts 43°
2026-05-04 22:48 40.72221 -73.64051 26923 ft 421 kts 43°
2026-05-04 22:48 40.74202 -73.61175 26932 ft 422 kts 43°
2026-05-04 22:48 40.76158 -73.58321 26934 ft 422 kts 43°
2026-05-04 22:49 40.78102 -73.55474 26932 ft 422 kts 43°
2026-05-04 22:49 40.79943 -73.52771 26934 ft 422 kts 43°
2026-05-04 22:49 40.81911 -73.49878 26915 ft 422 kts 43°
2026-05-04 22:49 40.83870 -73.46994 26907 ft 422 kts 43°
2026-05-04 22:50 40.85826 -73.44111 26907 ft 422 kts 43°
2026-05-04 22:50 40.87779 -73.41229 26908 ft 422 kts 43°
2026-05-04 22:50 40.89738 -73.38338 26905 ft 422 kts 43°
2026-05-04 22:50 40.91700 -73.35439 26905 ft 422 kts 43°
2026-05-04 22:51 40.93655 -73.32547 26908 ft 422 kts 43°
2026-05-04 22:51 40.95605 -73.29660 26905 ft 421 kts 43°
2026-05-04 22:51 40.97561 -73.26763 26918 ft 421 kts 43°
2026-05-04 22:51 40.99506 -73.23878 26911 ft 421 kts 43°
2026-05-04 22:52 41.01449 -73.20993 26906 ft 421 kts 43°
2026-05-04 22:52 41.03390 -73.18107 26718 ft 418 kts 43°
2026-05-04 22:52 41.05309 -73.15250 26286 ft 415 kts 43°
2026-05-04 22:52 41.07240 -73.12376 25706 ft 417 kts 43°
2026-05-04 22:53 41.09166 -73.09509 25128 ft 419 kts 43°
2026-05-04 22:53 41.11114 -73.06605 24509 ft 422 kts 43°
2026-05-04 22:53 41.13078 -73.03673 23932 ft 424 kts 44°
2026-05-04 22:53 41.15012 -73.00781 23426 ft 425 kts 44°
2026-05-04 22:54 41.16841 -72.98043 23009 ft 422 kts 44°
2026-05-04 22:54 41.18807 -72.95098 22922 ft 421 kts 44°
2026-05-04 22:54 41.20627 -72.92119 22915 ft 424 kts 50°
2026-05-04 22:54 41.22227 -72.88824 22909 ft 427 kts 56°
2026-05-04 22:55 41.23620 -72.85328 22915 ft 428 kts 59°
2026-05-04 22:55 41.24958 -72.81807 22911 ft 429 kts 59°
2026-05-04 22:55 41.26296 -72.78241 22911 ft 429 kts 59°
2026-05-04 22:55 41.27625 -72.74698 22903 ft 430 kts 59°
2026-05-04 22:56 41.28964 -72.71147 22908 ft 430 kts 59°
2026-05-04 22:56 41.30304 -72.67606 22801 ft 427 kts 59°
2026-05-04 22:56 41.31651 -72.64058 22535 ft 426 kts 59°
2026-05-04 22:56 41.32980 -72.60558 22250 ft 425 kts 59°
2026-05-04 22:57 41.34314 -72.57048 21984 ft 425 kts 59°
2026-05-04 22:57 41.35607 -72.53640 21748 ft 423 kts 59°
2026-05-04 22:57 41.36798 -72.50498 21547 ft 422 kts 59°
2026-05-04 22:57 41.38115 -72.47021 21303 ft 421 kts 59°
2026-05-04 22:58 41.39430 -72.43542 21047 ft 421 kts 59°
2026-05-04 22:58 41.40782 -72.39972 20996 ft 444 kts 60°
2026-05-04 22:58 41.42212 -72.36197 20979 ft 469 kts 60°
2026-05-04 22:58 41.43664 -72.32339 20930 ft 473 kts 60°
2026-05-04 22:59 41.45151 -72.28371 20922 ft 475 kts 60°
2026-05-04 22:59 41.46598 -72.24513 20920 ft 475 kts 60°
2026-05-04 22:59 41.48093 -72.20522 20906 ft 474 kts 60°
2026-05-04 22:59 41.49532 -72.16629 20821 ft 471 kts 60°
2026-05-04 23:00 41.50947 -72.12750 20721 ft 458 kts 61°
2026-05-04 23:00 41.52323 -72.08960 20614 ft 441 kts 60°
2026-05-04 23:00 41.53622 -72.05394 20497 ft 426 kts 60°
2026-05-04 23:00 41.54901 -72.01888 20413 ft 411 kts 60°
2026-05-04 23:01 41.56006 -71.98724 20319 ft 395 kts 64°
2026-05-04 23:01 41.57008 -71.95422 19878 ft 372 kts 65°
2026-05-04 23:01 41.57937 -71.92261 19098 ft 363 kts 65°
2026-05-04 23:01 41.58865 -71.89125 18150 ft 361 kts 65°
2026-05-04 23:02 41.59791 -71.86019 17096 ft 358 kts 65°
2026-05-04 23:02 41.60699 -71.82954 16173 ft 353 kts 66°
2026-05-04 23:02 41.61595 -71.79920 15274 ft 348 kts 66°
2026-05-04 23:02 41.62476 -71.76935 14413 ft 344 kts 67°
2026-05-04 23:03 41.63350 -71.73967 13529 ft 340 kts 67°
2026-05-04 23:03 41.64207 -71.71056 12654 ft 335 kts 67°
2026-05-04 23:03 41.65055 -71.68174 12235 ft 334 kts 67°
2026-05-04 23:03 41.65908 -71.65275 12042 ft 334 kts 66°
2026-05-04 23:04 41.66760 -71.62376 11927 ft 336 kts 66°
2026-05-04 23:04 41.67615 -71.59464 11909 ft 335 kts 67°
2026-05-04 23:04 41.68457 -71.56588 11898 ft 331 kts 67°
2026-05-04 23:04 41.69294 -71.53722 11893 ft 330 kts 66°
2026-05-04 23:05 41.70133 -71.50856 11905 ft 331 kts 66°
2026-05-04 23:05 41.70972 -71.47988 11685 ft 334 kts 66°
2026-05-04 23:05 41.71812 -71.45106 11391 ft 330 kts 66°
2026-05-04 23:05 41.72716 -71.42314 10995 ft 326 kts 59°
2026-05-04 23:06 41.73823 -71.39710 10902 ft 317 kts 57°
2026-05-04 23:06 41.74928 -71.37172 10909 ft 314 kts 57°
2026-05-04 23:06 41.76007 -71.34675 10902 ft 311 kts 57°
2026-05-04 23:06 41.77068 -71.32203 10900 ft 309 kts 58°
2026-05-04 23:07 41.78109 -71.29767 10907 ft 309 kts 57°
2026-05-04 23:07 41.79120 -71.27399 10926 ft 310 kts 57°
2026-05-04 23:07 41.80187 -71.24893 10899 ft 311 kts 57°
2026-05-04 23:07 41.81260 -71.22372 10926 ft 311 kts 58°
2026-05-04 23:08 41.82333 -71.19853 10904 ft 312 kts 57°
2026-05-04 23:08 41.83207 -71.17797 10905 ft 312 kts 58°
2026-05-04 23:08 41.84083 -71.15733 10908 ft 312 kts 57°
2026-05-04 23:08 41.85158 -71.13201 10908 ft 311 kts 58°
2026-05-04 23:09 41.86231 -71.10687 10807 ft 311 kts 57°
2026-05-04 23:09 41.87313 -71.08184 10578 ft 307 kts 56°
2026-05-04 23:09 41.88374 -71.05733 10275 ft 305 kts 57°
2026-05-04 23:09 41.89437 -71.03278 9887 ft 305 kts 56°
2026-05-04 23:10 41.90491 -71.00839 9597 ft 301 kts 56°
2026-05-04 23:10 41.91472 -70.98564 9182 ft 301 kts 56°
2026-05-04 23:10 41.92510 -70.96159 8805 ft 301 kts 57°
2026-05-04 23:10 41.93558 -70.93725 8432 ft 300 kts 57°
2026-05-04 23:11 41.94602 -70.91300 8059 ft 300 kts 57°
2026-05-04 23:11 41.95636 -70.88892 7953 ft 290 kts 57°
2026-05-04 23:11 41.96638 -70.86559 7968 ft 291 kts 57°
2026-05-04 23:11 41.97661 -70.84180 8020 ft 297 kts 57°
2026-05-04 23:12 41.98701 -70.81754 8060 ft 300 kts 57°
2026-05-04 23:12 41.99742 -70.79325 8068 ft 302 kts 57°
2026-05-04 23:12 42.00810 -70.76902 8062 ft 301 kts 53°
2026-05-04 23:12 42.02077 -70.74679 8043 ft 298 kts 44°
2026-05-04 23:13 42.03459 -70.72628 8042 ft 296 kts 44°
2026-05-04 23:13 42.04807 -70.70639 8041 ft 293 kts 43°
2026-05-04 23:13 42.06142 -70.68656 8040 ft 293 kts 44°
2026-05-04 23:13 42.07508 -70.66615 8045 ft 293 kts 44°
2026-05-04 23:14 42.08868 -70.64578 8045 ft 293 kts 44°
2026-05-04 23:14 42.10292 -70.62640 7897 ft 288 kts 33°
2026-05-04 23:14 42.12018 -70.61350 7568 ft 281 kts 15°
2026-05-04 23:14 42.13886 -70.60674 7166 ft 278 kts
2026-05-04 23:15 42.15785 -70.60160 6799 ft 277 kts
2026-05-04 23:15 42.17670 -70.59661 6509 ft 275 kts
2026-05-04 23:15 42.19047 -70.59293 6306 ft 274 kts
2026-05-04 23:15 42.20343 -70.58944 6032 ft 275 kts
2026-05-04 23:16 42.21546 -70.58616 5780 ft 275 kts
2026-05-04 23:16 42.23313 -70.58131 5439 ft 274 kts
2026-05-04 23:16 42.25178 -70.57615 5116 ft 273 kts
2026-05-04 23:16 42.27027 -70.57100 5063 ft 276 kts
2026-05-04 23:17 42.28888 -70.56580 5033 ft 270 kts
2026-05-04 23:17 42.30734 -70.56072 5034 ft 271 kts
2026-05-04 23:17 42.32482 -70.56194 5010 ft 242 kts 334°
2026-05-04 23:17 42.33890 -70.57259 5015 ft 219 kts 315°
2026-05-04 23:18 42.34985 -70.58590 5023 ft 209 kts 310°
2026-05-04 23:18 42.36034 -70.59976 5050 ft 213 kts 310°
2026-05-04 23:18 42.37075 -70.61361 5014 ft 213 kts 310°
2026-05-04 23:18 42.38122 -70.62754 5009 ft 212 kts 309°
2026-05-04 23:19 42.39175 -70.64151 5004 ft 211 kts 310°
2026-05-04 23:19 42.40218 -70.65532 5001 ft 210 kts 310°
2026-05-04 23:19 42.41258 -70.66907 4992 ft 209 kts 310°
2026-05-04 23:19 42.42350 -70.68359 5016 ft 232 kts 310°
2026-05-04 23:20 42.43535 -70.69931 4991 ft 243 kts 310°
2026-05-04 23:20 42.44776 -70.71568 4991 ft 254 kts 311°
2026-05-04 23:20 42.46061 -70.73261 4985 ft 259 kts 311°
2026-05-04 23:20 42.47344 -70.74948 4967 ft 256 kts 311°
2026-05-04 23:21 42.48618 -70.76626 4779 ft 254 kts 311°
2026-05-04 23:21 42.49872 -70.78281 4497 ft 251 kts 311°
2026-05-04 23:21 42.51118 -70.79920 4130 ft 250 kts 312°
2026-05-04 23:21 42.52435 -70.81448 3869 ft 247 kts 315°
2026-05-04 23:22 42.53592 -70.83020 3718 ft 224 kts 295°
2026-05-04 23:22 42.54191 -70.84884 3547 ft 211 kts 286°
2026-05-04 23:22 42.54614 -70.86719 3340 ft 197 kts 272°
2026-05-04 23:22 42.54376 -70.88503 2959 ft 192 kts 248°
2026-05-04 23:23 42.53977 -70.89882 2570 ft 191 kts 248°
2026-05-04 23:23 42.53415 -70.91428 2168 ft 182 kts 233°
2026-05-04 23:23 42.52636 -70.92712 2010 ft 169 kts 227°
2026-05-04 23:23 42.51747 -70.93653 1950 ft 159 kts 217°
2026-05-04 23:24 42.50747 -70.94319 1972 ft 167 kts 200°
2026-05-04 23:24 42.49625 -70.94570 2114 ft 163 kts 192°
2026-05-04 23:24 42.48505 -70.94805 2283 ft 169 kts 197°
2026-05-04 23:24 42.47349 -70.95249 2124 ft 171 kts 204°
2026-05-04 23:25 42.46243 -70.95783 2060 ft 164 kts 205°
2026-05-04 23:25 42.45205 -70.96289 1998 ft 158 kts 204°
2026-05-04 23:25 42.44164 -70.96794 1952 ft 162 kts 204°
2026-05-04 23:25 42.43100 -70.97306 1814 ft 164 kts 203°
2026-05-04 23:26 42.42045 -70.97796 1420 ft 162 kts 202°
2026-05-04 23:26 42.41004 -70.98296 1054 ft 157 kts 202°
2026-05-04 23:26 42.39975 -70.98795 708 ft 161 kts 202°
2026-05-04 23:26 42.38903 -70.99340 405 ft 165 kts 201°
2026-05-04 23:27 42.37883 -70.99844 135 ft 151 kts 199°
2026-05-04 23:27 42.36939 -71.00293 30 ft 129 kts 199°
2026-05-04 23:27 42.36485 -71.00512 30 ft 23 kts 199°
2026-05-04 23:27 42.36400 -71.00608 30 ft 19 kts 254°
2026-05-04 23:28 42.36414 -71.00714 30 ft 4 kts 291°
2026-05-04 23:28 42.36414 -71.00715 30 ft 0 kts 291°
2026-05-04 23:29 42.36441 -71.00806 30 ft 28 kts 291°
2026-05-04 23:29 42.36478 -71.00929 30 ft 12 kts 293°
2026-05-04 23:30 42.36484 -71.00948 30 ft 0 kts 294°
2026-05-04 23:30 42.36495 -71.00983 30 ft 17 kts 294°
2026-05-04 23:30 42.36545 -71.01147 30 ft 16 kts 289°
2026-05-04 23:31 42.36489 -71.01257 30 ft 16 kts 198°
2026-05-04 23:31 42.36383 -71.01301 30 ft 16 kts 198°
2026-05-04 23:31 42.36279 -71.01356 30 ft 16 kts 203°
2026-05-04 23:31 42.36176 -71.01415 30 ft 16 kts 194°
2026-05-04 23:32 42.36069 -71.01457 30 ft 16 kts 198°
2026-05-04 23:32 42.35968 -71.01506 30 ft 5 kts 201°
2026-05-04 23:33 42.35920 -71.01536 30 ft 18 kts 213°
2026-05-04 23:33 42.35894 -71.01648 30 ft 14 kts 276°
2026-05-04 23:33 42.35912 -71.01774 30 ft 14 kts 283°
2026-05-04 23:33 42.35951 -71.01890 30 ft 14 kts 299°
2026-05-04 23:34 42.35999 -71.02000 30 ft 14 kts 301°
2026-05-04 23:34 42.36047 -71.02110 30 ft 14 kts 301°
2026-05-04 23:34 42.36078 -71.02181 30 ft 2 kts 300°
2026-05-04 23:34 42.36086 -71.02199 30 ft 3 kts 300°
2026-05-04 23:35 42.36100 -71.02222 30 ft 4 kts 319°
2026-05-04 23:35 42.36124 -71.02223 30 ft 4 kts 33°
2026-05-04 23:35 42.36130 -71.02189 30 ft 0 kts 83°
2026-05-04 23:35 42.36131 -71.02188 30 ft 1 kts 79°
2026-05-04 23:36 42.36133 -71.02176 30 ft 0 kts 78°
2026-05-04 23:36 42.36133 -71.02174 30 ft 0 kts 78°